Printer-friendly version

IAU Minor Planet Center

Minor Planet Center

MPEC 2000-P07: 2000 OK8

The following Minor Planet Electronic Circular may be linked-to from your own Web pages, but must not otherwise be redistributed electronically.


Read MPEC 2000-P06 Read MPEC 2000-P08


M.P.E.C. 2000-P07                                Issued 2000 Aug. 1, 16:19 UT

     The Minor Planet Electronic Circulars contain information on unusual
         minor planets and routine data on comets.  They are published
   on behalf of Commission 20 of the International Astronomical Union by the
          Minor Planet Center, Smithsonian Astrophysical Observatory,
                          Cambridge, MA 02138, U.S.A.

             Prepared using the Tamkin Foundation Computer Network

             BMARSDEN@CFA.HARVARD.EDU or GWILLIAMS@CFA.HARVARD.EDU
          URL http://cfa-www.harvard.edu/iau/mpc.html  ISSN 1523-6714

                                   2000 OK8

Observations:
     K00O08K* C2000 07 30.31088 21 38 01.69 -07 44 12.4          18.2        704
     K00O08K  C2000 07 30.32417 21 37 58.05 -07 43 46.1          18.1        704
     K00O08K  C2000 07 30.33738 21 37 54.47 -07 43 19.2          17.9        704
     K00O08K  C2000 07 30.35057 21 37 50.82 -07 42 53.8          17.6        704
     K00O08K  C2000 07 30.88891 21 35 33.68 -07 24 59.7                      046
     K00O08K  C2000 07 30.89274 21 35 32.68 -07 24 51.5                      046
     K00O08K  C2000 07 30.89385 21 35 32.37 -07 24 50.1                      046
     K00O08K  C2000 07 30.89506 21 35 32.02 -07 24 47.7                      046
     K00O08K  C2000 07 30.89602 21 35 31.71 -07 24 45.7          16.4 R      046
     K00O08K  C2000 07 30.89759 21 35 31.32 -07 24 42.4                      046
     K00O08K  C2000 07 30.89844 21 35 31.00 -07 24 41.4                      557
     K00O08K  C2000 07 30.89850 21 35 31.08 -07 24 40.8          16.6 R      046
     K00O08K  C2000 07 30.89985 21 35 30.63 -07 24 38.6                      557
     K00O08K  C2000 07 30.90126 21 35 30.26 -07 24 36.0                      557
     K00O08K  C2000 07 30.90265 21 35 29.86 -07 24 33.0                      557
     K00O08K  C2000 07 30.92571 21 35 23.73 -07 23 44.5          17.5        120
     K00O08K  C2000 07 30.92859 21 35 22.96 -07 23 38.2                      120
     K00O08K  C2000 07 30.93128 21 35 22.25 -07 23 32.7                      120
     K00O08K  C2000 07 31.13505 21 34 28.48 -07 15 51.1          19.1 V      859
     K00O08K  C2000 07 31.14394 21 34 25.89 -07 15 31.8          19.1 V      859
     K00O08K  C2000 07 31.14623 21 34 25.29 -07 15 28.1          19.0 V      859
     K00O08K 1C2000 07 31.35046 21 33 31.78 -07 09 25.4                      658
     K00O08K 1C2000 07 31.35255 21 33 31.20 -07 09 21.1                      658
     K00O08K 1C2000 07 31.35417 21 33 30.78 -07 09 17.8                      658
     K00O08K  C2000 07 31.36490 21 33 27.03 -07 08 47.3          17.4        704
     K00O08K  C2000 07 31.37693 21 33 23.65 -07 08 22.7          17.8        704
     K00O08K  C2000 07 31.38896 21 33 20.33 -07 07 57.9          19.0        704
     K00O08K  C2000 07 31.40099 21 33 16.88 -07 07 33.4          18.3        704
     K00O08K  C2000 07 31.41303 21 33 13.51 -07 07 08.7          18.1        704
     K00O08K  C2000 07 31.53583 21 32 42.67 -07 01 54.9          16.4 R      474
     K00O08K  C2000 07 31.54108 21 32 41.32 -07 01 45.3          16.4 R      474
     K00O08K  C2000 07 31.86527 21 31 16.37 -06 51 51.6          18.7 V      151
     K00O08K  C2000 07 31.86616 21 31 16.31 -06 51 49.7          18.8 V      151
     K00O08K  C2000 07 31.86655 21 31 16.17 -06 51 48.1                      587
     K00O08K  C2000 07 31.86910 21 31 15.38 -06 51 42.0          17.0 R      587
     K00O08K  C2000 07 31.87205 21 31 14.57 -06 51 38.4          18.4 V      151
     K00O08K  C2000 07 31.87287 21 31 14.34 -06 51 36.9          18.1 V      151
     K00O08K  C2000 07 31.87369 21 31 14.06 -06 51 34.6          18.5 V      151
     K00O08K  C2000 07 31.87461 21 31 13.90 -06 51 33.1          18.4 V      151
     K00O08K  C2000 07 31.87656 21 31 13.30 -06 51 28.9          18.6 V      151
     K00O08K  C2000 07 31.88860 21 31 09.70 -06 51 05.4                      557
     K00O08K  C2000 07 31.89245 21 31 08.62 -06 50 57.7                      557
     K00O08K  C2000 07 31.89374 21 31 08.27 -06 50 55.1                      557
     K00O08K  C2000 07 31.89846 21 31 06.91 -06 50 44.2                      118
     K00O08K  C2000 07 31.90337 21 31 05.56 -06 50 34.5                      118
     K00O08K  C2000 07 31.90775 21 31 04.39 -06 50 25.9          16.3 R      118
     K00O08K  C2000 07 31.90891 21 31 04.11 -06 50 20.9                      108
     K00O08K  C2000 07 31.91156 21 31 03.64 -06 50 15.8                      108
     K00O08K  C2000 07 31.91569 21 31 02.39 -06 50 09.9                      108
     K00O08K  C2000 07 31.91666 21 31 02.15 -06 50 07.2          16.2 R      163
     K00O08K  C2000 07 31.91885 21 31 01.48 -06 50 03.6                      163
     K00O08K  C2000 07 31.92296 21 31 00.40 -06 49 54.3                      163
     K00O08K  C2000 07 31.92650 21 30 59.55 -06 49 46.6          16.8 V      108
     K00O08K  C2000 07 31.92799 21 30 59.01 -06 49 43.8                      163
     K00O08K  C2000 07 31.93508 21 30 56.93 -06 49 30.3                      611
     K00O08K  C2000 07 31.93755 21 30 56.10 -06 49 22.4          18.5        120
     K00O08K  C2000 07 31.94045 21 30 55.41 -06 49 19.6                      611
     K00O08K  C2000 07 31.94095 21 30 55.24 -06 49 16.4                      120
     K00O08K  C2000 07 31.94340 21 30 54.69 -06 49 13.6                      611
     K00O08K  C2000 07 31.94400 21 30 54.27 -06 49 10.9                      120
     K00O08K  C2000 08 01.00789 21 30 36.42 -06 47 01.0          17.5        138
     K00O08K  C2000 08 01.00940 21 30 35.94 -06 46 56.8          17.5        138
     K00O08K  C2000 08 01.01084 21 30 35.66 -06 46 55.4          17.5        138
     K00O08K  C2000 08 01.01940 21 30 33.09 -06 46 35.6          17.5        138
     K00O08K tC2000 08 01.15208 21 29 58.86 -06 41 00.2                      808
     K00O08K  C2000 08 01.22030 21 29 37.86 -06 38 45.1          17.4 V      860
     K00O08K  C2000 08 01.22186 21 29 37.48 -06 38 44.5          17.3 V      860
     K00O08K  C2000 08 01.22344 21 29 37.06 -06 38 40.5          17.5 V      860
     K00O08K FC2000 08 01.22500 21 29 36.69 -06 38 37.4          17.9 V      860
     K00O08K  C2000 08 01.24255 21 29 33.90 -06 38 50.9          18.6 V      739
     K00O08K  C2000 08 01.24396 21 29 33.56 -06 38 48.7          18.8 V      739
     K00O08K  C2000 08 01.24520 21 29 33.22 -06 38 46.0          18.6 V      739
     K00O08K  C2000 08 01.24641 21 29 32.87 -06 38 42.8          18.5 V      739
     K00O08K  C2000 08 01.35709 21 29 01.39 -06 34 48.9                      711
     K00O08K  C2000 08 01.36130 21 29 00.15 -06 34 39.9                      711
     K00O08K  C2000 08 01.36544 21 28 58.98 -06 34 31.3                      711
     K00O08K 1C2000 08 01.38175 21 28 55.24 -06 34 08.6                      658
     K00O08K 1C2000 08 01.38533 21 28 54.29 -06 34 01.4                      658

Observer details:
046 Klet.  Observers J. Ticha, M. Tichy.  0.57-m f/5.2 reflector + CCD.
108 Montelupo.  Observers M. Tombelli, A. Boattini, L. Tesi, D. Guidetti,
    E. Masotti.  Measurers M. Tombelli, A. Boattini, L. Tesi, S. Bartolini,
    G. Forti.  0.30-m f/5.7 Schmidt-Cassegrain + CCD.
118 Modra.  Observers A. Galad, P. Koleny.  0.6-m f/5.5 reflector + CCD.
120 Visnjan.  Observers B. Lukic, S. Pintaric, K. Korlevic.  Measurers
    B. Lukic, D. Dermadi, G. Malic, M. Juric, M. Rejkuba.  0.41-m f/4.3
    reflector + CCD.
138 Village-Neuf.  Observers C. Demeautis, D. Matter.  0.20-m f/6.8 reflector
    + CCD.
151 Eschenberg Observatory, Winterthur.  Observer M. Griesser.  0.25-m f/8.0
    reflector + CCD.
163 Roeser Observatory, Luxembourg.  Observer M. Dawson.  0.457-m f/4.5
    reflector + CCD.
474 Mount John Observatory, Lake Tekapo.  Observers I. P. Griffin, N. Brady,
    R. Greatrex.  1.0-m f/7.7 reflector + CCD.
557 Ondrejov.  Observer L. Sarounova.  0.65-m f/3.6 reflector + CCD.
587 Sormano.  Observer F. Manca.  0.5-m reflector + CCD.
611 Starkenburg.  Observers M. Busch, R. Stoss.  0.45-m f/4.4 reflector + CCD.
658 National Research Council of Canada.  Observer D. D. Balam.  1.82-m
    Plaskett reflector + CCD.
704 Lincoln Laboratory ETS, New Mexico.  Observers M. Blythe, F. Shelly,
    M. Bezpalko, M. Elowitz, R. Huber, L. Manguso.  Measurers J. Stuart,
    R. Sayer, J. B. Evans, H. Viggh.  1.0-m f/2.15 reflector + CCD.
711 McDonald Observatory.  Observers P. J. Shelus, J. G. Ries.  0.76-m
    reflector + CCD.
739 Sunflower Observatory, Olathe.  Observer L. Robinson.  0.25-m
    Schmidt-Cassegrain + CCD.
808 El Leoncito.  Observers C. E. Lopez, H. S. Lepez.  0.5-m f/7.5 double
    astrograph + CCD.
859 Wykrota Observatory-CEAMIG.  Observers C. Jacques, J. Amancio, D. Weaver,
    J. Diniz.  0.3-m f/3.3 Schmidt-Cassegrain + CCD.
860 Valinhos.  Observers P. R. Holvorcem, J. Camargo.  0.36-m f/3.6
    Schmidt-Cassegrain + CCD.

Orbital elements:
2000 OK8
Epoch 2000 July 15.0 TT = JDT 2451740.5                 Williams
M 193.51486              (2000.0)            P               Q
n   1.00760426     Peri.  166.04410     -0.35782390     -0.92301254
a   0.9853928      Node   304.74110     +0.83937315     -0.25155449
e   0.2198551      Incl.    9.91247     +0.40916351     -0.29114978
P   0.98           H   20.5           G   0.15
From 78 observations 2000 July 30-Aug. 1.

Ephemeris:
2000 OK8                 a,e,i = 0.99, 0.22, 10                  q = 0.7687
Date    TT    R. A. (2000) Decl.     Delta      r     Elong.  Phase     V
2000 07 25    21 58.56   -10 30.5    0.190    1.190   154.2    21.8    18.3
2000 07 30    21 39.34   -07 54.0    0.176    1.184   161.8    15.6    18.0
2000 08 04    21 16.69   -05 01.4    0.166    1.177   166.9    11.2    17.7
2000 08 09    20 51.71   -01 59.7    0.160    1.169   164.9    13.1    17.6
2000 08 14    20 25.96   +01 00.0    0.158    1.160   156.9    20.0    17.8
2000 08 19    20 01.13   +03 45.8    0.160    1.150   147.4    28.3    18.1
2000 08 24    19 38.63   +06 09.2    0.165    1.139   138.0    36.5    18.4
2000 08 29    19 19.34   +08 07.2    0.172    1.127   129.2    44.0    18.6
2000 09 03    19 03.58   +09 41.9    0.181    1.114   121.3    50.7    18.9
2000 09 08    18 51.17   +10 57.9    0.191    1.099   114.2    56.7    19.2
2000 09 13    18 41.64   +12 00.2    0.201    1.085   107.8    62.0    19.4
2000 09 18    18 34.43   +12 52.9    0.210    1.069   102.1    66.8    19.6
2000 09 23    18 29.04   +13 38.8    0.219    1.052    96.8    71.2    19.8
2000 09 28    18 25.02   +14 20.4    0.226    1.035    92.0    75.4    20.0
2000 10 03    18 21.95   +14 59.6    0.232    1.017    87.4    79.4    20.1
2000 10 08    18 19.35   +15 37.6    0.237    0.998    83.0    83.4    20.3
2000 10 13    18 16.77   +16 14.4    0.240    0.979    78.7    87.4    20.4
2000 10 18    18 13.78   +16 49.3    0.241    0.960    74.4    91.6    20.6
2000 10 23    18 09.95   +17 20.2    0.240    0.941    70.1    96.1    20.7
2000 10 28    18 04.87   +17 44.6    0.238    0.921    65.6   100.8    20.9
2000 11 02    17 58.04   +17 58.6    0.234    0.902    60.9   106.0    21.1

Gareth V. Williams           (C) Copyright 2000 MPC           M.P.E.C. 2000-P07

Read MPEC 2000-P06 Read MPEC 2000-P08


Our Web policy. Index to the CBAT/MPC/ICQ pages.


Valid HTML 4.01!